| time (UTC) | temp F | wind direction | speed MPH | gust MPH | rain 1hr in | rain 24hr in | rain mn in | humidity % | barometer mb |
| 20260502130247 | 58 | 225 | 0.0 | 0.0 | 0.00 | 0.00 | 0.13 | 79 | 1011.5 |
| 20260502123246 | 59 | 180 | 0.0 | 0.0 | 0.00 | 0.00 | 0.13 | 76 | 1011.3 |
| 20260502122245 | 60 | 225 | 0.0 | 0.0 | 0.00 | 0.00 | 0.13 | 75 | 1011.3 |
| 20260502121245 | 60 | 225 | 0.0 | 0.0 | 0.00 | 0.00 | 0.13 | 74 | 1011.4 |
| 20260502120244 | 60 | 180 | 0.0 | 0.0 | 0.00 | 0.00 | 0.13 | 74 | 1011.3 |
| 20260502115244 | 61 | 180 | 0.0 | 0.0 | 0.00 | 0.00 | 0.13 | 73 | 1011.1 |
| 20260502114244 | 61 | 225 | 0.0 | 0.0 | 0.00 | 0.00 | 0.13 | 73 | 1011.0 |
| 20260502113244 | 61 | 225 | 0.0 | 0.0 | 0.00 | 0.00 | 0.13 | 71 | 1010.7 |
| 20260502112243 | 62 | 180 | 0.0 | 0.0 | 0.00 | 0.00 | 0.13 | 71 | 1010.5 |
| 20260502111243 | 62 | 180 | 0.0 | 0.0 | 0.00 | 0.00 | 0.13 | 70 | 1010.4 |
| 20260502110242 | 62 | 180 | 0.0 | 0.0 | 0.00 | 0.00 | 0.13 | 70 | 1010.2 |
| 20260502105242 | 63 | 225 | 0.0 | 0.0 | 0.00 | 0.00 | 0.13 | 69 | 1010.2 |
| 20260502104242 | 63 | 180 | 0.0 | 0.0 | 0.00 | 0.00 | 0.13 | 68 | 1010.0 |
| 20260502103242 | 64 | 180 | 0.0 | 0.0 | 0.00 | 0.00 | 0.13 | 67 | 1010.0 |
| 20260502102241 | 64 | 180 | 0.0 | 1.0 | 0.00 | 0.00 | 0.13 | 65 | 1009.8 |
| 20260502101241 | 64 | 148 | 0.0 | 0.0 | 0.00 | 0.00 | 0.13 | 65 | 1009.6 |
| 20260502100240 | 65 | 180 | 0.0 | 0.0 | 0.00 | 0.00 | 0.13 | 63 | 1009.6 |
| 20260502091239 | 67 | 180 | 0.0 | 0.0 | 0.00 | 0.00 | 0.13 | 58 | 1008.9 |
| 20260502090238 | 68 | 193 | 0.0 | 0.0 | 0.00 | 0.00 | 0.13 | 57 | 1008.9 |
| 20260502071234 | 70 | 115 | 2.0 | 4.0 | 0.00 | 0.00 | 0.13 | 45 | 1008.0 |
| 20260502070234 | 70 | 275 | 0.0 | 4.0 | 0.00 | 0.00 | 0.13 | 44 | 1007.8 |
| 20260502065234 | 71 | 172 | 1.0 | 6.0 | 0.00 | 0.00 | 0.13 | 44 | 1007.4 |
| 20260502064233 | 71 | 157 | 0.0 | 5.0 | 0.00 | 0.00 | 0.13 | 43 | 1007.3 |
| 20260502063233 | 72 | 234 | 1.0 | 3.0 | 0.00 | 0.00 | 0.13 | 44 | 1007.4 |
| 20260502062232 | 72 | 180 | 0.0 | 4.0 | 0.00 | 0.00 | 0.13 | 44 | 1007.5 |
| 20260502061232 | 72 | 71 | 1.0 | 4.0 | 0.00 | 0.00 | 0.13 | 44 | 1007.5 |
| 20260502060232 | 72 | 208 | 0.0 | 4.0 | 0.00 | 0.00 | 0.13 | 45 | 1007.5 |
| 20260502055232 | 72 | 185 | 0.0 | 2.0 | 0.00 | 0.00 | 0.13 | 45 | 1007.5 |
| 20260502054231 | 72 | 243 | 1.0 | 5.0 | 0.00 | 0.00 | 0.13 | 43 | 1007.3 |
| 20260502053231 | 72 | 270 | 1.0 | 6.0 | 0.00 | 0.00 | 0.13 | 44 | 1007.2 |
| 20260502052230 | 73 | 129 | 2.0 | 4.0 | 0.00 | 0.00 | 0.13 | 43 | 1007.2 |
| 20260502051230 | 73 | 123 | 0.0 | 3.0 | 0.00 | 0.00 | 0.13 | 43 | 1007.3 |
| 20260502050230 | 73 | 210 | 1.0 | 4.0 | 0.00 | 0.00 | 0.13 | 43 | 1006.8 |
| 20260502045230 | 72 | 236 | 0.0 | 7.0 | 0.00 | 0.00 | 0.13 | 42 | 1007.0 |
| 20260502044229 | 72 | 112 | 2.0 | 4.0 | 0.00 | 0.00 | 0.13 | 42 | 1007.0 |
| 20260502043229 | 73 | 193 | 0.0 | 4.0 | 0.00 | 0.00 | 0.13 | 42 | 1007.1 |
| 20260502042228 | 74 | 230 | 1.0 | 3.0 | 0.00 | 0.00 | 0.13 | 43 | 1006.7 |
| 20260502041228 | 75 | 106 | 4.0 | 5.0 | 0.00 | 0.00 | 0.13 | 42 | 1006.8 |
| 20260502040227 | 75 | 238 | 1.0 | 1.0 | 0.00 | 0.00 | 0.13 | 44 | 1006.7 |
| 20260502035227 | 75 | 126 | 1.0 | 2.0 | 0.00 | 0.00 | 0.13 | 43 | 1006.9 |
| 20260502034227 | 75 | 189 | 0.0 | 3.0 | 0.00 | 0.00 | 0.13 | 43 | 1006.9 |
| 20260502033227 | 75 | 90 | 0.0 | 2.0 | 0.00 | 0.00 | 0.13 | 43 | 1006.6 |
| 20260502032226 | 74 | 180 | 0.0 | 1.0 | 0.00 | 0.00 | 0.13 | 44 | 1006.5 |
| 20260502031226 | 74 | 67 | 0.0 | 2.0 | 0.00 | 0.00 | 0.13 | 44 | 1006.4 |
| 20260502030225 | 74 | 207 | 0.0 | 3.0 | 0.00 | 0.00 | 0.13 | 45 | 1006.6 |
| 20260502025225 | 74 | 188 | 0.0 | 1.0 | 0.00 | 0.00 | 0.13 | 45 | 1006.3 |
| 20260502024225 | 73 | 186 | 1.0 | 1.0 | 0.00 | 0.00 | 0.13 | 47 | 1006.3 |
| 20260502023225 | 73 | 180 | 0.0 | 2.0 | 0.00 | 0.00 | 0.13 | 47 | 1006.6 |
| 20260502022224 | 72 | 126 | 1.0 | 1.0 | 0.00 | 0.00 | 0.13 | 48 | 1006.6 |
| 20260502021224 | 72 | 191 | 0.0 | 1.0 | 0.00 | 0.00 | 0.13 | 48 | 1006.6 |
| 20260502015221 | 70 | 225 | 0.0 | 0.0 | 0.00 | 0.00 | 0.13 | 52 | 1006.2 |
| 20260502014221 | 70 | 103 | 2.0 | 7.0 | 0.00 | 0.00 | 0.13 | 48 | 1006.1 |
| 20260502013221 | 70 | 132 | 2.0 | 3.0 | 0.00 | 0.00 | 0.13 | 51 | 1006.1 |
| 20260502012220 | 69 | 144 | 0.0 | 4.0 | 0.00 | 0.00 | 0.13 | 52 | 1006.0 |
| 20260502011220 | 68 | 220 | 0.0 | 2.0 | 0.00 | 0.00 | 0.13 | 55 | 1005.8 |
| 20260502010219 | 67 | 125 | 1.0 | 4.0 | 0.00 | 0.00 | 0.13 | 54 | 1005.6 |
| 20260502005219 | 66 | 130 | 1.0 | 3.0 | 0.00 | 0.00 | 0.13 | 56 | 1005.7 |
| 20260502004218 | 65 | 180 | 0.0 | 3.0 | 0.00 | 0.00 | 0.13 | 60 | 1005.7 |
| 20260502003218 | 64 | 195 | 0.0 | 2.0 | 0.00 | 0.00 | 0.13 | 58 | 1005.8 |
| 20260502002218 | 63 | 186 | 0.0 | 0.0 | 0.00 | 0.00 | 0.13 | 65 | 1005.7 |
| 20260502001218 | 62 | 157 | 1.0 | 1.0 | 0.00 | 0.00 | 0.13 | 66 | 1005.5 |
| 20260502000218 | 62 | 229 | 0.0 | 3.0 | 0.00 | 0.00 | 0.13 | 67 | 1005.7 |
| 20260501235217 | 61 | 137 | 1.0 | 3.0 | 0.00 | 0.00 | 0.13 | 73 | 1005.6 |
| 20260501234216 | 60 | 171 | 0.0 | 2.0 | 0.00 | 0.00 | 0.13 | 71 | 1005.5 |
| 20260501233216 | 60 | 150 | 0.0 | 2.0 | 0.00 | 0.00 | 0.13 | 76 | 1005.2 |
| 20260501232216 | 59 | 130 | 2.0 | 2.0 | 0.00 | 0.00 | 0.13 | 79 | 1005.3 |
| 20260501231216 | 59 | 180 | 0.0 | 0.0 | 0.00 | 0.00 | 0.13 | 80 | 1005.1 |
| 20260501230215 | 58 | 150 | 0.0 | 2.0 | 0.00 | 0.00 | 0.13 | 79 | 1005.2 |
| 20260501225215 | 58 | 137 | 1.0 | 2.0 | 0.00 | 0.00 | 0.13 | 81 | 1005.1 |
| 20260501224214 | 58 | 171 | 0.0 | 1.0 | 0.00 | 0.00 | 0.13 | 82 | 1005.1 |
| 20260501223214 | 57 | 207 | 0.0 | 2.0 | 0.00 | 0.00 | 0.13 | 82 | 1004.9 |
| 20260501222214 | 57 | 198 | 0.0 | 0.0 | 0.00 | 0.00 | 0.13 | 86 | 1004.7 |
| 20260501221213 | 56 | 225 | 0.0 | 0.0 | 0.00 | 0.00 | 0.13 | 89 | 1004.8 |
| 20260501220213 | 56 | 180 | 0.0 | 2.0 | 0.00 | 0.00 | 0.13 | 89 | 1004.8 |
| 20260501215213 | 56 | 168 | 0.0 | 0.0 | 0.00 | 0.00 | 0.13 | 95 | 1004.5 |
| 20260501214212 | 55 | 128 | 1.0 | 1.0 | 0.00 | 0.00 | 0.13 | 98 | 1004.3 |
| 20260501213212 | 53 | 157 | 0.0 | 0.0 | 0.00 | 0.00 | 0.13 | 100 | 1004.0 |
| 20260501212211 | 52 | 202 | 0.0 | 0.0 | 0.00 | 0.00 | 0.13 | 100 | 1004.0 |
| 20260501211211 | 52 | 180 | 0.0 | 0.0 | 0.00 | 0.00 | 0.13 | 100 | 1003.8 |
| 20260501210211 | 51 | 180 | 0.0 | 0.0 | 0.00 | 0.00 | 0.13 | 100 | 1003.7 |